• In Hungary
  • List of Countries
  • For 7 days
  • Water Temperature
  • Satellite Maps
  • Weather Map
  • News
  • Weather Widgets
  • user-avatar
    Login

    Hourly Weather Wiktoria

    Today, 24 January, Wednesday

    Time Temperature Precipitation Wind Pressure Humidity
    00:00 +21°C° 0 mm 4 mps 744 mmHg 57%
    01:00 +21°C° 0 mm 4 mps 744 mmHg 61%
    02:00 +20°C° 0.1 mm 3 mps 744 mmHg 64%
    03:00 +20°C° 0.1 mm 3 mps 744 mmHg 67%
    04:00 +20°C° 0 mm 2 mps 744 mmHg 70%
    05:00 +21°C° 0.4 mm 2 mps 744 mmHg 69%
    06:00 +21°C° 0.4 mm 2 mps 744 mmHg 68%
    07:00 +23°C° 0.4 mm 2 mps 745 mmHg 68%
    08:00 +26°C° 0.1 mm 2 mps 745 mmHg 59%
    09:00 +29°C° 0.1 mm 2 mps 745 mmHg 50%
    10:00 +32°C° 0 mm 2 mps 745 mmHg 43%
    11:00 +35°C° 0 mm 2 mps 745 mmHg 37%
    12:00 +37°C° 0 mm 2 mps 744 mmHg 31%
    13:00 +39°C° 0 mm 3 mps 744 mmHg 26%
    14:00 +39°C° 0 mm 3 mps 743 mmHg 25%
    15:00 +39°C° 0 mm 3 mps 743 mmHg 24%
    16:00 +39°C° 0 mm 3 mps 743 mmHg 24%
    17:00 +37°C° 0 mm 4 mps 743 mmHg 29%
    18:00 +35°C° 0 mm 4 mps 743 mmHg 34%
    19:00 +33°C° 0 mm 4 mps 743 mmHg 38%
    20:00 +30°C° 0.1 mm 4 mps 743 mmHg 45%
    21:00 +28°C° 0.1 mm 4 mps 744 mmHg 51%
    22:00 +27°C° 0.1 mm 4 mps 744 mmHg 58%
    23:00 +26°C° 0.1 mm 4 mps 744 mmHg 61%

    Tomorrow, 25 January, Thursday

    Time Temperature Precipitation Wind Pressure Humidity
    00:00 +25°C° 0.1 mm 4 mps 744 mmHg 63%
    01:00 +25°C° 0.1 mm 3 mps 744 mmHg 66%
    02:00 +24°C° 0.5 mm 3 mps 744 mmHg 70%
    03:00 +24°C° 0.5 mm 3 mps 744 mmHg 74%
    04:00 +22°C° 0.5 mm 3 mps 744 mmHg 77%
    05:00 +24°C° 0.4 mm 3 mps 744 mmHg 75%
    06:00 +24°C° 0.4 mm 3 mps 744 mmHg 73%
    07:00 +25°C° 0.4 mm 3 mps 744 mmHg 70%
    08:00 +28°C° 0 mm 3 mps 744 mmHg 62%
    09:00 +30°C° 0 mm 4 mps 744 mmHg 53%
    10:00 +34°C° 0 mm 4 mps 744 mmHg 44%
    11:00 +35°C° 0 mm 3 mps 744 mmHg 40%
    12:00 +37°C° 0 mm 3 mps 744 mmHg 35%
    13:00 +38°C° 0 mm 2 mps 743 mmHg 30%
    14:00 +39°C° 0 mm 2 mps 743 mmHg 29%
    15:00 +39°C° 0 mm 1 mps 742 mmHg 27%
    16:00 +39°C° 0 mm 1 mps 741 mmHg 25%
    17:00 +37°C° 0 mm 1 mps 742 mmHg 29%
    18:00 +36°C° 0 mm 1 mps 742 mmHg 32%
    19:00 +36°C° 0 mm 2 mps 742 mmHg 36%
    20:00 +34°C° 0 mm 3 mps 742 mmHg 41%
    21:00 +31°C° 0 mm 3 mps 743 mmHg 46%
    22:00 +29°C° 0 mm 4 mps 743 mmHg 51%
    23:00 +28°C° 0 mm 4 mps 743 mmHg 54%

    Day after tomorrow, 26 January, Friday

    Time Temperature Precipitation Wind Pressure Humidity
    00:00 +28°C° 0 mm 3 mps 744 mmHg 57%
    01:00 +27°C° 0 mm 3 mps 744 mmHg 60%
    02:00 +27°C° 0 mm 3 mps 744 mmHg 61%
    03:00 +26°C° 0 mm 3 mps 744 mmHg 63%
    04:00 +26°C° 0 mm 4 mps 744 mmHg 64%
    05:00 +27°C° 0 mm 4 mps 744 mmHg 63%
    06:00 +27°C° 0 mm 3 mps 745 mmHg 62%
    07:00 +28°C° 0 mm 3 mps 745 mmHg 61%
    08:00 +30°C° 0 mm 3 mps 745 mmHg 55%
    09:00 +33°C° 0 mm 4 mps 745 mmHg 49%
    10:00 +35°C° 0 mm 4 mps 745 mmHg 44%
    11:00 +36°C° 0 mm 4 mps 744 mmHg 40%
    12:00 +37°C° 0 mm 4 mps 744 mmHg 36%
    13:00 +38°C° 0 mm 4 mps 743 mmHg 33%
    14:00 +38°C° 0 mm 4 mps 743 mmHg 32%
    15:00 +38°C° 0 mm 4 mps 743 mmHg 31%
    16:00 +38°C° 0 mm 4 mps 742 mmHg 31%
    17:00 +37°C° 0.1 mm 3 mps 742 mmHg 34%
    18:00 +36°C° 0.1 mm 3 mps 743 mmHg 38%
    19:00 +34°C° 0.1 mm 3 mps 743 mmHg 42%
    20:00 +33°C° 0.6 mm 4 mps 743 mmHg 50%
    21:00 +30°C° 0.6 mm 4 mps 744 mmHg 57%
    22:00 +28°C° 0.6 mm 5 mps 744 mmHg 65%
    23:00 +27°C° 0.5 mm 5 mps 744 mmHg 67%

    27 January, Saturday

    Time Temperature Precipitation Wind Pressure Humidity
    00:00 +27°C° 0.5 mm 4 mps 744 mmHg 70%
    01:00 +26°C° 0.5 mm 4 mps 744 mmHg 73%
    02:00 +26°C° 0.4 mm 4 mps 744 mmHg 73%
    03:00 +26°C° 0.4 mm 3 mps 744 mmHg 73%
    04:00 +26°C° 0.4 mm 3 mps 744 mmHg 73%
    05:00 +26°C° 0 mm 4 mps 744 mmHg 72%
    06:00 +27°C° 0 mm 4 mps 745 mmHg 70%
    07:00 +28°C° 0 mm 4 mps 745 mmHg 68%
    08:00 +30°C° 0 mm 4 mps 745 mmHg 60%
    09:00 +33°C° 0 mm 4 mps 745 mmHg 53%
    10:00 +36°C° 0 mm 4 mps 745 mmHg 45%
    11:00 +37°C° 0 mm 4 mps 744 mmHg 41%
    12:00 +40°C° 0 mm 4 mps 744 mmHg 36%
    13:00 +41°C° 0 mm 4 mps 743 mmHg 31%
    14:00 +42°C° 0 mm 4 mps 743 mmHg 29%
    15:00 +43°C° 0 mm 3 mps 742 mmHg 27%
    16:00 +43°C° 0 mm 3 mps 742 mmHg 25%
    17:00 +42°C° 0 mm 3 mps 742 mmHg 28%
    18:00 +40°C° 0 mm 3 mps 742 mmHg 30%
    19:00 +38°C° 0 mm 2 mps 742 mmHg 33%
    20:00 +37°C° 0.1 mm 3 mps 743 mmHg 38%
    21:00 +35°C° 0.1 mm 5 mps 743 mmHg 43%
    22:00 +33°C° 0.1 mm 6 mps 744 mmHg 49%
    23:00 +32°C° 0.2 mm 6 mps 744 mmHg 53%

    28 January, Sunday

    Time Temperature Precipitation Wind Pressure Humidity
    00:00 +30°C° 0.2 mm 5 mps 744 mmHg 57%
    01:00 +29°C° 0.2 mm 5 mps 744 mmHg 61%
    02:00 +29°C° 0 mm 5 mps 744 mmHg 62%
    03:00 +29°C° 0 mm 5 mps 743 mmHg 62%
    04:00 +29°C° 0 mm 5 mps 743 mmHg 63%
    05:00 +29°C° 0 mm 5 mps 744 mmHg 63%
    06:00 +29°C° 0 mm 6 mps 744 mmHg 64%
    07:00 +29°C° 0 mm 6 mps 744 mmHg 64%
    08:00 +32°C° 0 mm 6 mps 744 mmHg 58%
    09:00 +33°C° 0 mm 6 mps 745 mmHg 53%
    10:00 +35°C° 0 mm 6 mps 745 mmHg 48%
    11:00 +38°C° 0 mm 6 mps 744 mmHg 43%
    12:00 +39°C° 0 mm 6 mps 743 mmHg 39%
    13:00 +41°C° 0 mm 5 mps 743 mmHg 34%
    14:00 +42°C° 0 mm 5 mps 742 mmHg 32%
    15:00 +42°C° 0 mm 5 mps 741 mmHg 30%
    16:00 +43°C° 0 mm 4 mps 741 mmHg 28%
    17:00 +42°C° 0 mm 4 mps 741 mmHg 30%
    18:00 +41°C° 0 mm 4 mps 741 mmHg 32%
    19:00 +39°C° 0 mm 3 mps 741 mmHg 34%
    20:00 +37°C° 0.3 mm 3 mps 741 mmHg 37%
    21:00 +36°C° 0.3 mm 4 mps 741 mmHg 40%
    22:00 +35°C° 0.3 mm 4 mps 741 mmHg 43%
    23:00 +33°C° 1.2 mm 3 mps 741 mmHg 49%

    29 January, Monday

    Time Temperature Precipitation Wind Pressure Humidity
    00:00 +31°C° 1.2 mm 3 mps 741 mmHg 55%
    01:00 +30°C° 1.2 mm 2 mps 741 mmHg 61%
    02:00 +29°C° 1.7 mm 2 mps 742 mmHg 65%
    03:00 +28°C° 1.7 mm 3 mps 742 mmHg 69%
    04:00 +28°C° 1.7 mm 3 mps 742 mmHg 73%
    05:00 +27°C° 1.6 mm 4 mps 742 mmHg 73%
    06:00 +27°C° 1.6 mm 4 mps 743 mmHg 74%
    07:00 +27°C° 1.6 mm 5 mps 743 mmHg 74%
    08:00 +27°C° 1.7 mm 5 mps 743 mmHg 72%
    09:00 +28°C° 1.7 mm 5 mps 743 mmHg 70%
    10:00 +29°C° 1.7 mm 5 mps 743 mmHg 68%
    11:00 +29°C° 1.4 mm 5 mps 743 mmHg 65%
    12:00 +30°C° 1.4 mm 4 mps 743 mmHg 62%
    13:00 +32°C° 1.4 mm 4 mps 743 mmHg 59%
    14:00 +30°C° 1.8 mm 4 mps 742 mmHg 62%
    15:00 +29°C° 1.8 mm 5 mps 742 mmHg 66%
    16:00 +28°C° 1.8 mm 5 mps 742 mmHg 69%
    17:00 +26°C° 5.6 mm 5 mps 742 mmHg 76%
    18:00 +23°C° 5.6 mm 6 mps 743 mmHg 82%
    19:00 +21°C° 5.6 mm 6 mps 743 mmHg 89%
    20:00 +20°C° 1.2 mm 6 mps 743 mmHg 87%
    21:00 +20°C° 1.2 mm 6 mps 744 mmHg 85%
    22:00 +18°C° 1.2 mm 7 mps 744 mmHg 83%
    23:00 +17°C° 0.2 mm 7 mps 744 mmHg 81%
    Show more